Preview of NWS' New Version of Forecast
This preview is not operational and should not be used for support decisions.

Regional Weather Roundup (RWR)

Issued by Gray - Portland, ME (GYX)

                            
677 
ASUS41 KGYX 200205
RWRGYX
WEATHER ROUNDUP FOR MAINE AND NEW HAMPSHIRE
NATIONAL WEATHER SERVICE GRAY ME
1000 PM EDT THU APR 19 2018

MEZ002-005-006-010-012-015-018-020-021-024-026-027-029-200300-
MAINE
  
CITY           SKY/WX    TMP DP  RH WIND       PRES   REMARKS
PORTLAND       CLOUDY    40  34  79 VRB7      29.76S                  
SANFORD        MOCLDY    37  35  92 W6        29.78R                  
BAR HARBOR     LGT RAIN  39  37  92 NW5       29.70F                  
WISCASSET      CLOUDY    39  35  86 VRB3      29.76R                  
ROCKLAND       CLOUDY    39  37  92 VRB6      29.72S                  
FRYEBURG       CLOUDY    36  33  89 CALM      29.77R                  
LEWISTONAUBURN CLOUDY    40  27  59 N10       29.75S                  
AUGUSTA        LGT RAIN  39  32  76 NW10      29.74S                  
WATERVILLE     CLOUDY    39  29  67 NW10      29.72S                  
BANGOR         LGT RAIN  41  34  76 NW7       29.72R                  
GREENVILLE       N/A     31  31 100 NW12      29.68S                  
MILLINOCKET    CLOUDY    39  29  67 W3        29.72R                  
HOULTON        CLOUDY    37  33  85 CALM      29.68S                  
PRESQUE ISLE   LGT RAIN  37  34  89 NW8       29.71                   
FRENCHVILLE    LGT RAIN  37  32  82 N6        29.70S                  
CARIBOU        LGT RAIN  37  31  78 N6        29.70S                  
$$

NHZ002-005-008-009-011-012-014-200300-
NEW HAMPSHIRE
  
CITY           SKY/WX    TMP DP  RH WIND       PRES   REMARKS
PORTSMOUTH     MOCLDY    39  34  80 NW5       29.77R                  
ROCHESTER      CLOUDY    38  34  85 NW9       29.77R                  
NASHUA         CLOUDY    40  30  67 NW10      29.81R                  
MANCHESTER     CLOUDY    42  27  55 NW13      29.79R                  
CONCORD        MOCLDY    39  27  62 NW9       29.80R                  
LACONIA        FAIR      36  27  69 CALM      29.80R                  
PLYMOUTH       LGT RAIN  36  30  78 W10       29.80S                  
BERLIN         CLOUDY    33  30  88 CALM      29.76S                  
WHITEFIELD     CLOUDY    33  31  92 CALM      29.79R                  
JAFFREY        CLOUDY    37  29  72 NW9       29.81R                  
KEENE          LGT RAIN  36  30  79 W5        29.85R                  
LEBANON        CLOUDY    37  27  67 CALM      29.84R                  
MT WASHINGTON  SNOW      14  14 100 NW35G41     N/A  VSB 0   WCI  -8  
$$

VTZ005-007-008-200300-
VERMONT
  
CITY           SKY/WX    TMP DP  RH WIND       PRES   REMARKS
ST JOHNSBURY     N/A     33  33 100 MISG      29.80R                  
MONTPELIER     LGT SNOW  31  30  96 NW13      29.86R FOG              
BURLINGTON     LGT SNOW  36  29  75 NW15G23   29.89S                  
$$

MAZ007-012-024-CTZ003-RIZ002-NYZ038-NYZ072-200300-
SOUTHERN NEW ENGLAND AND NY
  
CITY           SKY/WX    TMP DP  RH WIND       PRES   REMARKS
BOSTON         CLOUDY    42  34  73 NW14      29.80R                  
WORCESTER      CLOUDY    34  30  85 NW16      29.80R                  
NANTUCKET      LGT RAIN  42  41  96 W13       29.80R                  
PROVIDENCE     LGT RAIN  41  34  76 NW16G23   29.83R                  
HARTFORD       CLOUDY    38  28  67 NW10      29.89R                  
ALBANY         CLOUDY    36  25  64 W16G25    29.93R                  
NEW YORK CITY  FAIR      42  25  50 NW22G37   29.98R                  
$$

ANZ081-ANZ082-ANZ150-NHZ014-MEZ023>029-200300-
COASTAL MARINE OBSERVATIONS
  
STATION/POSITION TIME  TEMP    WIND        PRES    WAVE
                       AIR SEA DIR/SP/G            HT/PER
                 (UTC) (F)     (DEG/KT/KT) (MB)    (FT/S)
MOUNT DESERT ROC 0200   39     280/  9/ 10 1005.8F
MATINICUS ROCK   0100   39     280/ 11/ 12 1005.7R
ISLE OF SHOALS   0100   41     340/ 16/ 18 1007.6R
JEFFREYS LEDGE   0136      41                N/A     3/ 9
CASHES LEDGE BUO 0150   40 40              1006.8R   3/10
$$

.............KEY..............
   WCI - WIND CHILL
   TC  - TEMPERATURE IN CELSIUS
   VSB - VISIBILITY IN MILES
   HX  - HEAT INDEX
   FAIR- INDICATES FEW OR NO CLOUDS BELOW 12,000 FT, WITH NO 
         SIGNIFICANT WEATHER AND/OR OBSTRUCTIONS TO VISIBILITY.